ARCCUBE 1 (RS25S)

Last updated on Mon Sep 15 2025 00:03:09 GMT+0000 (Coordinated Universal Time)

1 57205U 23091AR 25257.21899008 .00068835 00000+0 94995-3 0 9990 2 57205 97.5345 327.3435 0003793 275.9304 84.1518 15.56957071123147
UTC large
Height (km)
Speed (km/s)
/
Latitude / Longitude
Inclination (degrees)
Orbital Period (minutes)
Azimuth
Elevation
Range (km)
Doppler Factor

Next 0 passes for location: London (51.5072 / 0.1276)

Sorry there are no passes over London.